EZY54VT EGCC-GCTS

Flight info

Callsign EZY54VT
Flight time 4h 17m
Altitude 36000
Route ASMIM DCT NOKIN P17 BEPHE DCT OSSEP DCT ELNIF DCT ZESPE DCT DAWLY DCT BHD DCT ANNET DCT EKVEB DCT KORUL DCT DEMOS DCT IBIDO DCT TUNAV DCT VABEM DCT RULET DCT ORTIS
Aircraft A21N/M-SDE2E3FGHIJ1RWXY/LB1

Departure

Time 2026-05-04 15:24
Airport Manchester Airport (EGCC)

Arrival

Time 2026-05-04 19:41
Airport Tenerife Sur Airport (GCTS)
Time Latitude Longitude Altitude Speed Heading
2026-05-04 14:01 53.36265 -2.27772 261 ft 0 kts 194°
2026-05-04 14:56 53.36281 -2.27765 260 ft 4 kts 195°
2026-05-04 14:56 53.36306 -2.27754 260 ft 2 kts 195°
2026-05-04 14:56 53.36326 -2.27740 260 ft 4 kts 224°
2026-05-04 14:56 53.36334 -2.27708 260 ft 4 kts 282°
2026-05-04 14:57 53.36337 -2.27725 260 ft 4 kts 285°
2026-05-04 14:57 53.36340 -2.27740 260 ft 0 kts 285°
2026-05-04 15:14 53.36340 -2.27742 260 ft 1 kts 285°
2026-05-04 15:14 53.36344 -2.27764 260 ft 3 kts 292°
2026-05-04 15:14 53.36361 -2.27808 260 ft 6 kts 310°
2026-05-04 15:15 53.36389 -2.27859 260 ft 6 kts 313°
2026-05-04 15:15 53.36389 -2.27932 260 ft 7 kts 240°
2026-05-04 15:15 53.36356 -2.27997 260 ft 7 kts 224°
2026-05-04 15:16 53.36257 -2.28074 260 ft 9 kts 186°
2026-05-04 15:16 53.36200 -2.28038 260 ft 9 kts 140°
2026-05-04 15:16 53.36090 -2.27888 260 ft 11 kts 142°
2026-05-04 15:17 53.36028 -2.27807 260 ft 12 kts 142°
2026-05-04 15:17 53.35866 -2.27729 260 ft 9 kts 182°
2026-05-04 15:17 53.35807 -2.27716 257 ft 9 kts 145°
2026-05-04 15:18 53.35773 -2.27674 256 ft 6 kts 153°
2026-05-04 15:18 53.35732 -2.27642 254 ft 7 kts 159°
2026-05-04 15:18 53.35685 -2.27610 252 ft 8 kts 147°
2026-05-04 15:19 53.35617 -2.27518 251 ft 6 kts 141°
2026-05-04 15:19 53.35580 -2.27469 250 ft 7 kts 141°
2026-05-04 15:19 53.35475 -2.27331 254 ft 11 kts 143°
2026-05-04 15:20 53.35412 -2.27245 252 ft 12 kts 140°
2026-05-04 15:20 53.35335 -2.27192 249 ft 9 kts 181°
2026-05-04 15:20 53.35285 -2.27204 246 ft 7 kts 191°
2026-05-04 15:20 53.35247 -2.27217 242 ft 4 kts 192°
2026-05-04 15:21 53.35234 -2.27222 241 ft 0 kts 192°
2026-05-04 15:21 53.35226 -2.27224 240 ft 3 kts 192°
2026-05-04 15:21 53.35200 -2.27233 238 ft 5 kts 192°
2026-05-04 15:22 53.35159 -2.27248 239 ft 7 kts 191°
2026-05-04 15:22 53.35112 -2.27264 234 ft 7 kts 191°
2026-05-04 15:22 53.35010 -2.27321 231 ft 8 kts 231°
2026-05-04 15:23 53.34976 -2.27391 231 ft 19 kts 231°
2026-05-04 15:23 53.34738 -2.27883 230 ft 88 kts 231°
2026-05-04 15:23 53.34229 -2.28934 233 ft 143 kts 231°
2026-05-04 15:23 53.33529 -2.30385 418 ft 167 kts 231°
2026-05-04 15:24 53.32018 -2.33400 1459 ft 182 kts 231°
2026-05-04 15:24 53.31646 -2.37736 2326 ft 219 kts 284°
2026-05-04 15:25 53.32035 -2.40350 2750 ft 243 kts 284°
2026-05-04 15:25 53.32366 -2.43196 3412 ft 255 kts 274°
2026-05-04 15:25 53.32141 -2.46148 4220 ft 260 kts 255°
2026-05-04 15:26 53.31035 -2.51984 5935 ft 266 kts 252°
2026-05-04 15:26 53.30474 -2.54956 6751 ft 269 kts 253°
2026-05-04 15:26 53.29260 -2.60945 8358 ft 276 kts 245°
2026-05-04 15:27 53.28365 -2.63803 9177 ft 280 kts 239°
2026-05-04 15:27 53.25218 -2.67660 10508 ft 302 kts 194°
2026-05-04 15:28 53.20768 -2.68238 11370 ft 334 kts 184°
2026-05-04 15:28 53.18449 -2.68435 12292 ft 331 kts 184°
2026-05-04 15:28 53.13850 -2.68933 13995 ft 333 kts 185°
2026-05-04 15:29 53.11526 -2.69212 14695 ft 336 kts 185°
2026-05-04 15:30 53.02033 -2.70385 17361 ft 350 kts 184°
2026-05-04 15:30 52.94643 -2.71306 19243 ft 358 kts 184°
2026-05-04 15:31 52.89627 -2.71929 20365 ft 365 kts 184°
2026-05-04 15:31 52.87074 -2.72245 20901 ft 369 kts 183°
2026-05-04 15:32 52.79292 -2.73207 22476 ft 379 kts 183°
2026-05-04 15:32 52.74019 -2.73854 23491 ft 385 kts 182°
2026-05-04 15:33 52.68638 -2.74516 24453 ft 389 kts 183°
2026-05-04 15:34 52.60468 -2.75517 25665 ft 398 kts 182°
2026-05-04 15:34 52.57675 -2.75859 26052 ft 401 kts 182°
2026-05-04 15:34 52.52072 -2.76539 26802 ft 407 kts 182°
2026-05-04 15:35 52.46385 -2.77080 27653 ft 409 kts 182°
2026-05-04 15:35 52.43549 -2.77326 28088 ft 409 kts 181°
2026-05-04 15:35 52.40697 -2.77571 28455 ft 411 kts 181°
2026-05-04 15:36 52.34943 -2.78065 29111 ft 416 kts 181°
2026-05-04 15:36 52.32037 -2.78315 29434 ft 419 kts 181°
2026-05-04 15:36 52.29155 -2.78564 29750 ft 422 kts 181°
2026-05-04 15:37 52.26214 -2.78816 30083 ft 424 kts 181°
2026-05-04 15:37 52.23257 -2.79068 30396 ft 425 kts 182°
2026-05-04 15:37 52.20294 -2.79319 30729 ft 426 kts 182°
2026-05-04 15:37 52.17330 -2.79568 31005 ft 427 kts 182°
2026-05-04 15:38 52.14352 -2.79823 31258 ft 429 kts 182°
2026-05-04 15:38 52.11366 -2.80082 31514 ft 431 kts 182°
2026-05-04 15:38 52.08363 -2.80340 31756 ft 433 kts 182°
2026-05-04 15:38 52.05344 -2.80600 32001 ft 434 kts 182°
2026-05-04 15:39 52.02325 -2.80856 32242 ft 436 kts 181°
2026-05-04 15:39 51.99283 -2.81113 32524 ft 437 kts 182°
2026-05-04 15:39 51.93240 -2.81623 33228 ft 434 kts 181°
2026-05-04 15:40 51.90260 -2.81875 33527 ft 433 kts 181°
2026-05-04 15:40 51.87246 -2.82128 33808 ft 433 kts 181°
2026-05-04 15:40 51.84245 -2.82543 34066 ft 433 kts 185°
2026-05-04 15:40 51.81251 -2.83170 34274 ft 433 kts 186°
2026-05-04 15:41 51.78261 -2.83824 34469 ft 433 kts 186°
2026-05-04 15:41 51.75277 -2.84474 34663 ft 433 kts 186°
2026-05-04 15:41 51.72287 -2.85120 34884 ft 432 kts 186°
2026-05-04 15:41 51.69302 -2.85760 35053 ft 432 kts 186°
2026-05-04 15:42 51.66318 -2.86396 35099 ft 433 kts 186°
2026-05-04 15:42 51.60390 -2.87661 35058 ft 432 kts 186°
2026-05-04 15:43 51.54423 -2.89294 35041 ft 434 kts 195°
2026-05-04 15:43 51.48762 -2.92584 35030 ft 436 kts 199°
2026-05-04 15:44 51.43083 -2.96057 35021 ft 438 kts 199°
2026-05-04 15:44 51.37355 -2.99496 35016 ft 440 kts 199°
2026-05-04 15:45 51.31620 -3.02919 35009 ft 440 kts 199°
2026-05-04 15:45 51.25874 -3.06340 35009 ft 440 kts 199°
2026-05-04 15:46 51.20124 -3.09754 35006 ft 440 kts 199°
2026-05-04 15:46 51.14409 -3.13138 35005 ft 440 kts 199°
2026-05-04 15:47 51.08657 -3.16534 35004 ft 440 kts 199°
2026-05-04 15:47 51.02912 -3.19921 35002 ft 440 kts 199°
2026-05-04 15:48 50.97171 -3.23294 34998 ft 440 kts 199°
2026-05-04 15:48 50.88550 -3.28343 34994 ft 440 kts 199°
2026-05-04 15:49 50.82772 -3.31715 35000 ft 444 kts 199°
2026-05-04 15:49 50.76986 -3.35081 34995 ft 441 kts 199°
2026-05-04 15:50 50.71264 -3.38405 34994 ft 441 kts 199°
2026-05-04 15:50 50.65504 -3.41745 34994 ft 441 kts 199°
2026-05-04 15:51 50.59746 -3.45067 34994 ft 441 kts 199°
2026-05-04 15:51 50.53786 -3.47118 34997 ft 438 kts 186°
2026-05-04 15:52 50.47719 -3.48078 34997 ft 438 kts 185°
2026-05-04 15:52 50.41658 -3.49104 34999 ft 438 kts 188°
2026-05-04 15:53 50.35843 -3.52021 35009 ft 440 kts 202°
2026-05-04 15:53 50.30253 -3.55960 35000 ft 439 kts 203°
2026-05-04 15:54 50.24666 -3.59840 34999 ft 439 kts 202°
2026-05-04 15:54 50.19071 -3.63678 34999 ft 439 kts 202°
2026-05-04 15:55 50.13470 -3.67507 35014 ft 441 kts 202°
2026-05-04 15:55 50.07881 -3.71319 35004 ft 437 kts 202°
2026-05-04 15:56 50.02341 -3.75087 35004 ft 437 kts 202°
2026-05-04 15:56 49.96766 -3.78869 35000 ft 437 kts 202°
2026-05-04 15:57 49.91184 -3.82647 34999 ft 437 kts 202°
2026-05-04 15:57 49.85615 -3.86408 35000 ft 436 kts 202°
2026-05-04 15:58 49.80048 -3.90156 35000 ft 436 kts 202°
2026-05-04 15:58 49.74487 -3.93887 35000 ft 436 kts 202°
2026-05-04 15:59 49.68902 -3.97630 35000 ft 437 kts 202°
2026-05-04 15:59 49.63324 -4.01342 35002 ft 436 kts 201°
2026-05-04 16:00 49.57708 -4.04896 35009 ft 437 kts 201°
2026-05-04 16:00 49.52101 -4.08434 34995 ft 438 kts 201°
2026-05-04 16:01 49.46464 -4.11996 35001 ft 438 kts 201°
2026-05-04 16:01 49.40822 -4.15557 34997 ft 437 kts 201°
2026-05-04 16:02 49.35193 -4.19100 34994 ft 437 kts 201°
2026-05-04 16:03 49.26770 -4.24388 34994 ft 437 kts 201°
2026-05-04 16:03 49.21149 -4.27906 34998 ft 436 kts 201°
2026-05-04 16:04 49.16488 -4.30815 34995 ft 435 kts 201°
2026-05-04 16:04 49.08066 -4.36053 34994 ft 435 kts 201°
2026-05-04 16:05 49.02455 -4.39532 34994 ft 435 kts 201°
2026-05-04 16:06 48.94003 -4.44760 34993 ft 438 kts 201°
2026-05-04 16:07 48.82699 -4.51724 34994 ft 438 kts 201°
2026-05-04 16:08 48.71425 -4.58628 34992 ft 438 kts 201°
2026-05-04 16:09 48.57283 -4.67248 34992 ft 438 kts 201°
2026-05-04 16:10 48.46004 -4.74054 34985 ft 436 kts 200°
2026-05-04 16:11 48.34734 -4.80856 34985 ft 436 kts 200°
2026-05-04 16:12 48.17897 -4.90971 34982 ft 435 kts 200°
2026-05-04 16:13 48.06634 -4.97681 34980 ft 435 kts 200°
2026-05-04 16:14 47.95416 -5.04323 34981 ft 435 kts 200°
2026-05-04 16:16 47.81322 -5.12665 34979 ft 437 kts 200°
2026-05-04 16:17 47.67220 -5.20948 34975 ft 437 kts 200°
2026-05-04 16:18 47.55917 -5.27533 34978 ft 436 kts 200°
2026-05-04 16:19 47.41793 -5.35750 34976 ft 436 kts 200°
2026-05-04 16:20 47.27626 -5.43962 34982 ft 439 kts 200°
2026-05-04 16:22 47.13409 -5.52118 34981 ft 438 kts 200°
2026-05-04 16:23 46.96407 -5.61811 34979 ft 436 kts 200°
2026-05-04 16:25 46.79408 -5.71453 34983 ft 438 kts 200°
2026-05-04 16:26 46.59527 -5.82716 34980 ft 439 kts 203°
2026-05-04 16:28 46.45558 -5.91659 34979 ft 439 kts 203°
2026-05-04 16:29 46.25999 -6.04119 34979 ft 441 kts 203°
2026-05-04 16:31 46.11956 -6.12978 34979 ft 440 kts 203°
2026-05-04 16:32 45.95160 -6.23538 34979 ft 439 kts 203°
2026-05-04 16:33 45.83961 -6.30535 34977 ft 438 kts 203°
2026-05-04 16:34 45.75534 -6.35775 34976 ft 441 kts 204°
2026-05-04 16:35 45.58638 -6.46269 34973 ft 441 kts 204°
2026-05-04 16:36 45.50207 -6.51469 34978 ft 439 kts 204°
2026-05-04 16:37 45.41786 -6.56642 34976 ft 439 kts 204°
2026-05-04 16:38 45.30556 -6.63515 34979 ft 442 kts 204°
2026-05-04 16:39 45.16432 -6.72117 34979 ft 441 kts 204°
2026-05-04 16:40 45.05135 -6.78961 34983 ft 441 kts 204°
2026-05-04 16:41 44.91034 -6.87466 34992 ft 440 kts 204°
2026-05-04 16:43 44.77414 -6.97303 34985 ft 441 kts 214°
2026-05-04 16:43 44.69670 -7.04235 34988 ft 439 kts 213°
2026-05-04 16:45 44.55036 -7.17155 34995 ft 439 kts 213°
2026-05-04 16:46 44.42058 -7.28497 34994 ft 441 kts 213°
2026-05-04 16:47 44.31699 -7.37570 35000 ft 440 kts 213°
2026-05-04 16:48 44.21293 -7.46594 35006 ft 441 kts 213°
2026-05-04 16:49 44.10882 -7.55606 35012 ft 440 kts 213°
2026-05-04 16:50 44.00460 -7.64581 35011 ft 441 kts 213°
2026-05-04 16:51 43.92621 -7.71316 35012 ft 441 kts 214°
2026-05-04 16:52 43.82201 -7.80203 35022 ft 441 kts 213°
2026-05-04 16:53 43.74357 -7.86882 35013 ft 441 kts 214°
2026-05-04 16:54 43.63926 -7.95734 35034 ft 439 kts 214°
2026-05-04 16:55 43.48291 -8.08953 35044 ft 438 kts 214°
2026-05-04 16:56 43.35298 -8.19862 35054 ft 439 kts 214°
2026-05-04 16:57 43.27473 -8.26399 35053 ft 438 kts 214°
2026-05-04 16:58 43.17063 -8.35083 35052 ft 438 kts 214°
2026-05-04 17:00 43.01448 -8.48028 35074 ft 437 kts 214°
2026-05-04 17:01 42.88419 -8.58761 35077 ft 437 kts 215°
2026-05-04 17:02 42.78009 -8.67308 35081 ft 437 kts 215°
2026-05-04 17:03 42.70232 -8.73673 35075 ft 438 kts 215°
2026-05-04 17:03 42.62384 -8.80061 35076 ft 438 kts 215°
2026-05-04 17:04 42.51922 -8.88550 35079 ft 438 kts 215°
2026-05-04 17:05 42.41466 -8.97027 35082 ft 438 kts 215°
2026-05-04 17:06 42.33621 -9.03377 35083 ft 438 kts 215°
2026-05-04 17:07 42.26648 -9.08977 35083 ft 437 kts 215°
2026-05-04 17:07 42.20574 -9.13854 35071 ft 436 kts 215°
2026-05-04 17:08 42.12750 -9.20124 35082 ft 436 kts 216°
2026-05-04 17:09 42.07521 -9.24282 35083 ft 436 kts 216°
2026-05-04 17:09 42.02299 -9.28456 35070 ft 435 kts 216°
2026-05-04 17:10 41.89369 -9.38765 35091 ft 433 kts 216°
2026-05-04 17:11 41.84209 -9.42923 35091 ft 433 kts 216°
2026-05-04 17:12 41.76480 -9.49141 35086 ft 430 kts 217°
2026-05-04 17:13 41.63635 -9.59421 35098 ft 430 kts 217°
2026-05-04 17:14 41.53412 -9.67573 35089 ft 427 kts 217°
2026-05-04 17:15 41.45744 -9.73681 35103 ft 427 kts 217°
2026-05-04 17:16 41.35509 -9.81793 35071 ft 428 kts 217°
2026-05-04 17:17 41.25331 -9.89824 35104 ft 425 kts 218°
2026-05-04 17:18 41.15129 -9.97843 35116 ft 426 kts 217°
2026-05-04 17:19 41.04963 -10.05803 35115 ft 423 kts 218°
2026-05-04 17:20 40.94850 -10.13697 35120 ft 422 kts 218°
2026-05-04 17:20 40.87261 -10.19601 35100 ft 420 kts 218°
2026-05-04 17:21 40.77178 -10.27415 35119 ft 420 kts 218°
2026-05-04 17:22 40.72137 -10.31316 35125 ft 420 kts 218°
2026-05-04 17:23 40.62096 -10.39054 35115 ft 416 kts 219°
2026-05-04 17:24 40.54581 -10.44845 35131 ft 417 kts 218°
2026-05-04 17:25 40.44558 -10.52522 35133 ft 417 kts 218°
2026-05-04 17:26 40.34548 -10.60170 35129 ft 416 kts 219°
2026-05-04 17:27 40.22036 -10.69662 35134 ft 417 kts 219°
2026-05-04 17:28 40.12847 -10.76624 35138 ft 417 kts 219°
2026-05-04 17:29 39.97770 -10.88007 35147 ft 417 kts 219°
2026-05-04 17:31 39.85261 -10.97408 35143 ft 416 kts 219°
2026-05-04 17:32 39.72693 -11.06819 35151 ft 417 kts 219°
2026-05-04 17:33 39.62652 -11.14295 35152 ft 415 kts 219°
2026-05-04 17:34 39.52614 -11.21755 35150 ft 416 kts 219°
2026-05-04 17:35 39.40084 -11.31022 35149 ft 413 kts 219°
2026-05-04 17:36 39.35114 -11.34687 35148 ft 414 kts 218°
2026-05-04 17:36 39.30106 -11.38378 35155 ft 414 kts 218°
2026-05-04 17:37 39.25120 -11.42050 35155 ft 412 kts 218°
2026-05-04 17:37 39.20140 -11.45702 35146 ft 411 kts 218°
2026-05-04 17:38 39.15170 -11.49350 35157 ft 411 kts 218°
2026-05-04 17:38 39.10197 -11.52994 35158 ft 411 kts 218°
2026-05-04 17:39 39.02752 -11.58419 35158 ft 411 kts 218°
2026-05-04 17:39 38.97776 -11.62040 35136 ft 411 kts 217°
2026-05-04 17:40 38.92799 -11.65656 35151 ft 411 kts 217°
2026-05-04 17:40 38.87813 -11.69267 35160 ft 411 kts 217°
2026-05-04 17:41 38.82839 -11.72869 35163 ft 411 kts 217°
2026-05-04 17:41 38.77891 -11.76449 35163 ft 411 kts 217°
2026-05-04 17:42 38.72912 -11.80056 35147 ft 411 kts 217°
2026-05-04 17:42 38.67943 -11.83669 35162 ft 411 kts 217°
2026-05-04 17:43 38.62957 -11.87265 35167 ft 411 kts 217°
2026-05-04 17:43 38.57969 -11.90855 35168 ft 411 kts 217°
2026-05-04 17:44 38.52975 -11.94444 35168 ft 411 kts 217°
2026-05-04 17:44 38.47987 -11.98019 35155 ft 411 kts 216°
2026-05-04 17:45 38.42988 -12.01600 35166 ft 412 kts 216°
2026-05-04 17:45 38.37991 -12.05170 35164 ft 412 kts 216°
2026-05-04 17:46 38.32985 -12.08744 35174 ft 412 kts 216°
2026-05-04 17:46 38.28005 -12.12296 35173 ft 412 kts 216°
2026-05-04 17:47 38.22999 -12.15861 35155 ft 413 kts 215°
2026-05-04 17:47 38.17973 -12.19423 35184 ft 414 kts 215°
2026-05-04 17:48 38.12940 -12.22990 35168 ft 414 kts 215°
2026-05-04 17:48 38.07913 -12.26549 35182 ft 414 kts 215°
2026-05-04 17:49 38.02886 -12.30106 35173 ft 414 kts 215°
2026-05-04 17:49 37.97887 -12.33639 35175 ft 413 kts 215°
2026-05-04 17:50 37.92864 -12.37181 35182 ft 414 kts 215°
2026-05-04 17:50 37.87826 -12.40719 35181 ft 414 kts 215°
2026-05-04 17:51 37.82790 -12.44257 35182 ft 414 kts 214°
2026-05-04 17:51 37.77751 -12.47794 35183 ft 414 kts 215°
2026-05-04 17:52 37.72710 -12.51323 35184 ft 414 kts 215°
2026-05-04 17:52 37.67672 -12.54848 35183 ft 414 kts 214°
2026-05-04 17:53 37.62625 -12.58363 35183 ft 414 kts 214°
2026-05-04 17:53 37.57582 -12.61877 35183 ft 414 kts 214°
2026-05-04 17:54 37.52541 -12.65394 35186 ft 414 kts 214°
2026-05-04 17:54 37.47497 -12.68899 35177 ft 412 kts 215°
2026-05-04 17:55 37.42475 -12.72384 35181 ft 412 kts 215°
2026-05-04 17:55 37.37457 -12.75860 35182 ft 412 kts 215°
2026-05-04 17:56 37.32434 -12.79329 35182 ft 411 kts 216°
2026-05-04 17:56 37.27458 -12.82768 35185 ft 410 kts 216°
2026-05-04 17:57 37.22454 -12.86214 35173 ft 409 kts 216°
2026-05-04 17:57 37.17465 -12.89652 35184 ft 409 kts 216°
2026-05-04 17:58 37.12477 -12.93076 35185 ft 409 kts 216°
2026-05-04 17:58 37.07494 -12.96503 35186 ft 409 kts 216°
2026-05-04 17:59 37.02499 -12.99920 35186 ft 409 kts 216°
2026-05-04 18:00 36.95019 -13.05030 35180 ft 407 kts 215°
2026-05-04 18:00 36.90042 -13.08415 35192 ft 407 kts 216°
2026-05-04 18:01 36.85073 -13.11803 35192 ft 407 kts 215°
2026-05-04 18:01 36.80099 -13.15185 35194 ft 407 kts 215°
2026-05-04 18:02 36.72685 -13.20235 35166 ft 406 kts 215°
2026-05-04 18:02 36.67720 -13.23603 35188 ft 406 kts 215°
2026-05-04 18:03 36.62760 -13.26963 35191 ft 406 kts 215°
2026-05-04 18:03 36.57796 -13.30323 35198 ft 405 kts 215°
2026-05-04 18:04 36.52867 -13.33732 35189 ft 404 kts 216°
2026-05-04 18:05 36.45561 -13.38965 35180 ft 404 kts 216°
2026-05-04 18:05 36.40712 -13.42429 35191 ft 405 kts 216°
2026-05-04 18:06 36.33391 -13.47661 35192 ft 404 kts 216°
2026-05-04 18:06 36.28511 -13.51140 35184 ft 405 kts 216°
2026-05-04 18:07 36.23615 -13.54616 35195 ft 405 kts 216°
2026-05-04 18:07 36.18723 -13.58088 35184 ft 404 kts 216°
2026-05-04 18:08 36.13868 -13.61529 35190 ft 404 kts 216°
2026-05-04 18:08 36.08985 -13.64983 35192 ft 404 kts 216°
2026-05-04 18:09 35.99217 -13.71877 35188 ft 404 kts 216°
2026-05-04 18:10 35.94337 -13.75317 35164 ft 403 kts 215°
2026-05-04 18:10 35.89508 -13.78712 35187 ft 397 kts 215°
2026-05-04 18:11 35.85512 -13.81519 35183 ft 397 kts 215°
2026-05-04 18:11 35.79930 -13.85435 35191 ft 397 kts 215°
2026-05-04 18:12 35.75126 -13.88798 35189 ft 397 kts 215°
2026-05-04 18:12 35.71104 -13.91616 35180 ft 397 kts 215°
2026-05-04 18:13 35.66295 -13.94979 35175 ft 397 kts 214°
2026-05-04 18:14 35.59111 -13.99992 35182 ft 398 kts 214°
2026-05-04 18:14 35.54285 -14.03352 35186 ft 398 kts 214°
2026-05-04 18:15 35.44640 -14.10053 35190 ft 398 kts 214°
2026-05-04 18:16 35.39818 -14.13394 35177 ft 399 kts 214°
2026-05-04 18:16 35.34984 -14.16742 35184 ft 399 kts 214°
2026-05-04 18:17 35.27715 -14.21763 35184 ft 400 kts 214°
2026-05-04 18:18 35.20437 -14.26784 35183 ft 401 kts 214°
2026-05-04 18:18 35.15572 -14.30131 35184 ft 401 kts 214°
2026-05-04 18:19 35.08309 -14.35125 35186 ft 401 kts 214°
2026-05-04 18:19 35.03444 -14.38463 35185 ft 401 kts 214°
2026-05-04 18:20 34.98575 -14.41802 35183 ft 401 kts 214°
2026-05-04 18:20 34.93710 -14.45135 35184 ft 401 kts 214°
2026-05-04 18:21 34.88837 -14.48466 35183 ft 401 kts 214°
2026-05-04 18:21 34.83942 -14.51808 35178 ft 405 kts 213°
2026-05-04 18:22 34.79012 -14.55166 35180 ft 406 kts 213°
2026-05-04 18:22 34.74076 -14.58523 35177 ft 407 kts 213°
2026-05-04 18:23 34.69150 -14.61873 35178 ft 408 kts 213°
2026-05-04 18:23 34.64185 -14.65245 35176 ft 409 kts 213°
2026-05-04 18:24 34.59218 -14.68609 35162 ft 409 kts 213°
2026-05-04 18:24 34.54250 -14.71971 35169 ft 409 kts 213°
2026-05-04 18:25 34.49283 -14.75328 35171 ft 409 kts 213°
2026-05-04 18:25 34.44318 -14.78677 35171 ft 409 kts 213°
2026-05-04 18:26 34.39343 -14.82030 35171 ft 409 kts 213°
2026-05-04 18:26 34.34370 -14.85379 35171 ft 408 kts 213°
2026-05-04 18:27 34.29419 -14.88709 35164 ft 406 kts 213°
2026-05-04 18:27 34.24475 -14.91972 35168 ft 408 kts 211°
2026-05-04 18:28 34.19395 -14.95018 35160 ft 408 kts 210°
2026-05-04 18:28 34.14295 -14.98055 35161 ft 408 kts 210°
2026-05-04 18:29 34.09211 -15.01086 35155 ft 408 kts 211°
2026-05-04 18:29 34.04116 -15.04120 35150 ft 408 kts 210°
2026-05-04 18:30 33.96507 -15.08646 35154 ft 408 kts 210°
2026-05-04 18:31 33.91419 -15.11664 35157 ft 407 kts 210°
2026-05-04 18:31 33.86345 -15.14673 35155 ft 407 kts 210°
2026-05-04 18:32 33.81259 -15.17683 35155 ft 407 kts 210°
2026-05-04 18:32 33.76176 -15.20688 35136 ft 407 kts 210°
2026-05-04 18:33 33.71086 -15.23692 35147 ft 408 kts 210°
2026-05-04 18:33 33.65993 -15.26693 35140 ft 408 kts 210°
2026-05-04 18:34 33.60899 -15.29691 35146 ft 408 kts 210°
2026-05-04 18:34 33.55800 -15.32690 35138 ft 408 kts 210°
2026-05-04 18:35 33.50705 -15.35682 35129 ft 408 kts 210°
2026-05-04 18:35 33.45603 -15.38672 35132 ft 408 kts 210°
2026-05-04 18:36 33.40495 -15.41664 35134 ft 408 kts 210°
2026-05-04 18:36 33.35391 -15.44648 35133 ft 409 kts 210°
2026-05-04 18:37 33.30310 -15.47615 35125 ft 409 kts 210°
2026-05-04 18:37 33.25203 -15.50595 35123 ft 409 kts 210°
2026-05-04 18:38 33.20078 -15.53579 35116 ft 409 kts 210°
2026-05-04 18:38 33.14938 -15.56566 35120 ft 410 kts 210°
2026-05-04 18:39 33.09803 -15.59551 35119 ft 410 kts 210°
2026-05-04 18:39 33.04710 -15.62507 35118 ft 410 kts 210°
2026-05-04 18:40 32.99575 -15.65485 35115 ft 410 kts 210°
2026-05-04 18:40 32.94447 -15.68454 35101 ft 410 kts 210°
2026-05-04 18:41 32.89281 -15.71432 35111 ft 413 kts 210°
2026-05-04 18:41 32.84116 -15.74412 35111 ft 413 kts 210°
2026-05-04 18:42 32.78949 -15.77391 35111 ft 413 kts 209°
2026-05-04 18:42 32.73768 -15.80367 35109 ft 413 kts 210°
2026-05-04 18:43 32.68595 -15.83342 35112 ft 413 kts 210°
2026-05-04 18:43 32.63428 -15.86308 35109 ft 411 kts 209°
2026-05-04 18:44 32.58309 -15.89244 35110 ft 411 kts 209°
2026-05-04 18:44 32.53164 -15.92194 35110 ft 411 kts 209°
2026-05-04 18:45 32.48019 -15.95136 35109 ft 411 kts 209°
2026-05-04 18:45 32.42869 -15.98080 35108 ft 411 kts 209°
2026-05-04 18:46 32.37703 -16.01027 35111 ft 411 kts 209°
2026-05-04 18:46 32.32541 -16.03972 35109 ft 412 kts 209°
2026-05-04 18:47 32.27377 -16.06917 35109 ft 412 kts 209°
2026-05-04 18:47 32.22217 -16.09849 35108 ft 412 kts 209°
2026-05-04 18:48 32.17052 -16.12781 35109 ft 412 kts 209°
2026-05-04 18:48 32.11889 -16.15707 35108 ft 412 kts 209°
2026-05-04 18:49 32.06742 -16.18623 35107 ft 407 kts 208°
2026-05-04 18:49 32.01631 -16.21515 35107 ft 408 kts 208°
2026-05-04 18:50 31.96513 -16.24405 35107 ft 408 kts 208°
2026-05-04 18:50 31.91398 -16.27289 35106 ft 408 kts 208°
2026-05-04 18:51 31.86274 -16.30177 35104 ft 408 kts 208°
2026-05-04 18:51 31.81184 -16.33042 35100 ft 407 kts 208°
2026-05-04 18:52 31.76085 -16.35906 35105 ft 407 kts 208°
2026-05-04 18:52 31.70962 -16.38782 35108 ft 408 kts 208°
2026-05-04 18:53 31.65836 -16.41654 35102 ft 408 kts 208°
2026-05-04 18:53 31.61570 -16.44044 35102 ft 408 kts 208°
2026-05-04 18:54 31.56443 -16.46912 35102 ft 408 kts 208°
2026-05-04 18:54 31.51306 -16.49781 35103 ft 406 kts 208°
2026-05-04 18:55 31.46211 -16.52624 35110 ft 405 kts 208°
2026-05-04 18:55 31.40962 -16.55045 35113 ft 411 kts 196°
2026-05-04 18:55 31.38107 -16.55441 35110 ft 417 kts 185°
2026-05-04 18:56 31.32270 -16.54944 35118 ft 422 kts 179°
2026-05-04 18:56 31.26430 -16.54263 35104 ft 421 kts 180°
2026-05-04 18:57 31.20621 -16.53647 35099 ft 417 kts 182°
2026-05-04 18:57 31.14880 -16.53049 35110 ft 417 kts 182°
2026-05-04 18:58 31.09100 -16.52446 35110 ft 417 kts 182°
2026-05-04 18:58 31.03319 -16.51848 35109 ft 417 kts 182°
2026-05-04 18:59 30.97547 -16.51252 35101 ft 415 kts 183°
2026-05-04 18:59 30.91801 -16.50665 35110 ft 414 kts 183°
2026-05-04 19:00 30.86062 -16.50078 35116 ft 414 kts 183°
2026-05-04 19:00 30.80315 -16.49491 35117 ft 414 kts 183°
2026-05-04 19:01 30.74575 -16.48910 35114 ft 414 kts 183°
2026-05-04 19:01 30.68839 -16.48332 35103 ft 413 kts 183°
2026-05-04 19:02 30.63139 -16.47755 35110 ft 414 kts 183°
2026-05-04 19:02 30.57403 -16.47164 35110 ft 414 kts 183°
2026-05-04 19:03 30.51660 -16.46582 35112 ft 414 kts 183°
2026-05-04 19:03 30.45919 -16.46004 35093 ft 414 kts 183°
2026-05-04 19:04 30.40179 -16.45429 35113 ft 413 kts 183°
2026-05-04 19:04 30.34444 -16.44854 35110 ft 414 kts 183°
2026-05-04 19:05 30.28701 -16.44273 35112 ft 415 kts 183°
2026-05-04 19:05 30.22953 -16.43692 35111 ft 415 kts 183°
2026-05-04 19:06 30.17192 -16.43108 35100 ft 414 kts 183°
2026-05-04 19:06 30.11448 -16.42528 35111 ft 414 kts 183°
2026-05-04 19:07 30.05694 -16.41952 35110 ft 414 kts 183°
2026-05-04 19:07 29.99954 -16.41374 35106 ft 414 kts 183°
2026-05-04 19:08 29.94242 -16.40799 35108 ft 414 kts 183°
2026-05-04 19:08 29.88465 -16.40219 35098 ft 412 kts 184°
2026-05-04 19:09 29.82804 -16.39653 35104 ft 411 kts 184°
2026-05-04 19:09 29.77102 -16.39084 35104 ft 411 kts 184°
2026-05-04 19:10 29.71404 -16.38515 35108 ft 411 kts 184°
2026-05-04 19:10 29.65713 -16.37948 35107 ft 411 kts 184°
2026-05-04 19:11 29.60136 -16.38256 35104 ft 393 kts 200°
2026-05-04 19:11 29.57577 -16.39239 35106 ft 383 kts 211°
2026-05-04 19:11 29.55299 -16.40778 35106 ft 376 kts 221°
2026-05-04 19:12 29.49309 -16.46505 35109 ft 376 kts 224°
2026-05-04 19:13 29.45265 -16.50348 35105 ft 377 kts 223°
2026-05-04 19:13 29.41218 -16.54165 35103 ft 377 kts 223°
2026-05-04 19:14 29.37163 -16.57980 35099 ft 377 kts 223°
2026-05-04 19:14 29.33105 -16.61786 35087 ft 375 kts 223°
2026-05-04 19:15 29.29096 -16.65542 35099 ft 371 kts 223°
2026-05-04 19:15 29.25093 -16.69293 35101 ft 371 kts 223°
2026-05-04 19:16 29.21094 -16.73043 35104 ft 373 kts 223°
2026-05-04 19:16 29.17073 -16.76810 35101 ft 373 kts 223°
2026-05-04 19:17 29.13060 -16.80563 35063 ft 366 kts 223°
2026-05-04 19:17 29.11119 -16.82368 34776 ft 356 kts 223°
2026-05-04 19:17 29.09212 -16.84143 34309 ft 351 kts 224°
2026-05-04 19:17 29.07327 -16.85903 33732 ft 349 kts 224°
2026-05-04 19:18 29.05450 -16.87653 33118 ft 347 kts 224°
2026-05-04 19:18 29.03584 -16.89397 32528 ft 345 kts 224°
2026-05-04 19:18 29.01755 -16.91103 31947 ft 342 kts 224°
2026-05-04 19:18 28.99913 -16.92817 31409 ft 340 kts 224°
2026-05-04 19:19 28.98085 -16.94519 30856 ft 338 kts 224°
2026-05-04 19:19 28.96264 -16.96213 30303 ft 337 kts 224°
2026-05-04 19:19 28.94453 -16.97899 29694 ft 336 kts 224°
2026-05-04 19:19 28.92646 -16.99582 29104 ft 333 kts 224°
2026-05-04 19:20 28.90855 -17.01250 28550 ft 331 kts 224°
2026-05-04 19:20 28.89077 -17.02905 28011 ft 328 kts 223°
2026-05-04 19:20 28.87310 -17.04547 27491 ft 326 kts 223°
2026-05-04 19:20 28.85562 -17.06170 26980 ft 323 kts 223°
2026-05-04 19:21 28.83831 -17.07777 26505 ft 320 kts 223°
2026-05-04 19:21 28.82113 -17.09372 26022 ft 317 kts 223°
2026-05-04 19:21 28.80408 -17.10954 25548 ft 315 kts 223°
2026-05-04 19:21 28.78715 -17.12522 25082 ft 312 kts 223°
2026-05-04 19:22 28.77031 -17.14084 24614 ft 310 kts 223°
2026-05-04 19:22 28.75364 -17.15627 24167 ft 308 kts 223°
2026-05-04 19:22 28.73703 -17.17162 23728 ft 306 kts 223°
2026-05-04 19:22 28.72056 -17.18683 23209 ft 304 kts 223°
2026-05-04 19:23 28.70419 -17.20196 22698 ft 301 kts 224°
2026-05-04 19:23 28.68801 -17.21689 22282 ft 297 kts 224°
2026-05-04 19:23 28.67223 -17.23145 21814 ft 294 kts 223°
2026-05-04 19:23 28.65630 -17.24601 21345 ft 293 kts 221°
2026-05-04 19:24 28.63845 -17.25750 20846 ft 299 kts 207°
2026-05-04 19:24 28.61792 -17.26299 20296 ft 309 kts 192°
2026-05-04 19:24 28.59611 -17.26119 19715 ft 321 kts 175°
2026-05-04 19:24 28.57494 -17.25161 19153 ft 334 kts 159°
2026-05-04 19:25 28.55538 -17.23792 18645 ft 335 kts 155°
2026-05-04 19:25 28.53582 -17.22366 18125 ft 332 kts 155°
2026-05-04 19:25 28.51614 -17.20958 17576 ft 328 kts 156°
2026-05-04 19:25 28.49681 -17.19602 17050 ft 324 kts 156°
2026-05-04 19:26 28.47790 -17.18292 16539 ft 321 kts 156°
2026-05-04 19:26 28.45890 -17.16984 16046 ft 318 kts 156°
2026-05-04 19:26 28.44009 -17.15693 15545 ft 314 kts 156°
2026-05-04 19:26 28.42142 -17.14414 15046 ft 312 kts 156°
2026-05-04 19:27 28.40290 -17.13148 14564 ft 309 kts 156°
2026-05-04 19:27 28.38462 -17.11897 14105 ft 305 kts 156°
2026-05-04 19:27 28.36647 -17.10656 13595 ft 302 kts 156°
2026-05-04 19:27 28.34857 -17.09433 13043 ft 300 kts 156°
2026-05-04 19:28 28.33077 -17.08218 12476 ft 298 kts 155°
2026-05-04 19:28 28.31310 -17.07012 11940 ft 295 kts 155°
2026-05-04 19:28 28.29551 -17.05813 11386 ft 294 kts 154°
2026-05-04 19:28 28.27802 -17.04620 10875 ft 292 kts 153°
2026-05-04 19:29 28.26064 -17.03434 10347 ft 291 kts 153°
2026-05-04 19:29 28.24334 -17.02254 9825 ft 290 kts 152°
2026-05-04 19:29 28.22607 -17.01075 9269 ft 288 kts 152°
2026-05-04 19:29 28.20892 -16.99904 8718 ft 287 kts 152°
2026-05-04 19:30 28.19185 -16.98739 8316 ft 283 kts 151°
2026-05-04 19:30 28.17519 -16.97603 8145 ft 274 kts 152°
2026-05-04 19:30 28.15848 -16.96679 7994 ft 261 kts 160°
2026-05-04 19:30 28.14207 -16.95944 7786 ft 247 kts 161°
2026-05-04 19:31 28.12641 -16.95254 7469 ft 238 kts 161°
2026-05-04 19:31 28.11622 -16.94806 7187 ft 236 kts 161°
2026-05-04 19:31 28.09606 -16.93915 6578 ft 234 kts 160°
2026-05-04 19:31 28.08090 -16.93243 6085 ft 234 kts 160°
2026-05-04 19:32 28.06588 -16.92575 5666 ft 225 kts 160°
2026-05-04 19:32 28.05187 -16.91951 5502 ft 208 kts 160°
2026-05-04 19:32 28.04308 -16.91559 5299 ft 203 kts 159°
2026-05-04 19:32 28.03014 -16.90951 4901 ft 200 kts 158°
2026-05-04 19:33 28.01729 -16.90347 4470 ft 200 kts 158°
2026-05-04 19:33 28.00446 -16.89750 4050 ft 199 kts 158°
2026-05-04 19:33 27.99171 -16.89155 3631 ft 198 kts 158°
2026-05-04 19:33 27.97906 -16.88566 3230 ft 196 kts 157°
2026-05-04 19:34 27.96644 -16.87978 3024 ft 196 kts 157°
2026-05-04 19:34 27.95384 -16.87389 2982 ft 196 kts 157°
2026-05-04 19:34 27.94242 -16.86575 2978 ft 195 kts 131°
2026-05-04 19:34 27.93785 -16.85182 2978 ft 192 kts 86°
2026-05-04 19:35 27.94253 -16.83805 3004 ft 189 kts 55°
2026-05-04 19:35 27.95007 -16.82596 3010 ft 188 kts 53°
2026-05-04 19:35 27.95712 -16.81346 3005 ft 189 kts 58°
2026-05-04 19:35 27.96331 -16.80034 3001 ft 189 kts 62°
2026-05-04 19:36 27.96885 -16.78684 2995 ft 189 kts 64°
2026-05-04 19:36 27.97403 -16.77317 2996 ft 186 kts 64°
2026-05-04 19:36 27.97879 -16.76065 2999 ft 159 kts 66°
2026-05-04 19:36 27.98276 -16.74948 2976 ft 151 kts 66°
2026-05-04 19:37 27.98664 -16.73843 2913 ft 151 kts 66°
2026-05-04 19:37 27.99048 -16.72742 2769 ft 150 kts 66°
2026-05-04 19:37 27.99426 -16.71660 2588 ft 149 kts 66°
2026-05-04 19:37 27.99812 -16.70553 2389 ft 149 kts 66°
2026-05-04 19:38 28.00191 -16.69462 2193 ft 146 kts 65°
2026-05-04 19:38 28.00550 -16.68419 1996 ft 144 kts 65°
2026-05-04 19:38 28.00912 -16.67375 1775 ft 141 kts 64°
2026-05-04 19:38 28.01274 -16.66351 1609 ft 139 kts 65°
2026-05-04 19:39 28.01639 -16.65331 1404 ft 139 kts 65°
2026-05-04 19:39 28.01973 -16.64318 1250 ft 136 kts 67°
2026-05-04 19:39 28.02338 -16.63320 1051 ft 137 kts 67°
2026-05-04 19:39 28.02678 -16.62326 923 ft 135 kts 67°
2026-05-04 19:40 28.03038 -16.61337 698 ft 137 kts 70°
2026-05-04 19:40 28.03375 -16.60312 579 ft 138 kts 71°
2026-05-04 19:40 28.03731 -16.59309 364 ft 136 kts 70°
2026-05-04 19:40 28.04072 -16.58325 210 ft 130 kts 70°
2026-05-04 19:41 28.04371 -16.57469 201 ft 95 kts 69°
2026-05-04 19:41 28.04548 -16.56964 204 ft 56 kts 68°
2026-05-04 19:41 28.04659 -16.56657 209 ft 23 kts 56°
2026-05-04 19:41 28.04755 -16.56506 217 ft 23 kts 45°
2026-05-04 19:42 28.04854 -16.56402 221 ft 21 kts 43°
2026-05-04 19:42 28.04911 -16.56359 225 ft 9 kts
2026-05-04 19:42 28.04928 -16.56423 224 ft 11 kts 253°
2026-05-04 19:42 28.04896 -16.56513 227 ft 13 kts 246°
2026-05-04 19:43 28.04858 -16.56619 224 ft 16 kts 249°
2026-05-04 19:43 28.04817 -16.56741 224 ft 18 kts 249°
2026-05-04 19:43 28.04771 -16.56878 225 ft 20 kts 248°
2026-05-04 19:43 28.04718 -16.57025 229 ft 17 kts 248°
2026-05-04 19:44 28.04691 -16.57102 228 ft 10 kts 246°
2026-05-04 19:44 28.04654 -16.57184 228 ft 13 kts 246°
2026-05-04 19:44 28.04618 -16.57285 230 ft 15 kts 249°
2026-05-04 19:44 28.04591 -16.57364 230 ft 8 kts 249°
2026-05-04 19:45 28.04568 -16.57429 228 ft 10 kts 249°
2026-05-04 19:45 28.04540 -16.57512 228 ft 12 kts 248°
2026-05-04 19:45 28.04508 -16.57602 228 ft 13 kts 248°
2026-05-04 19:45 28.04506 -16.57667 228 ft 8 kts 309°
2026-05-04 19:46 28.04560 -16.57696 228 ft 9 kts 339°
2026-05-04 19:46 28.04596 -16.57751 230 ft 10 kts 263°
2026-05-04 19:46 28.04566 -16.57831 230 ft 12 kts 246°
2026-05-04 19:46 28.04541 -16.57922 230 ft 13 kts 250°
2026-05-04 19:47 28.04507 -16.58020 232 ft 14 kts 249°
2026-05-04 19:47 28.04498 -16.58091 230 ft 9 kts 306°
2026-05-04 19:47 28.04526 -16.58107 231 ft 3 kts 339°
2026-05-04 19:47 28.04546 -16.58115 231 ft 2 kts 339°
2026-05-04 19:48 28.04556 -16.58119 231 ft 0 kts 338°